When you browse on this site, cookies collect data to enhance your experience and personalize the content and advertising you see.
Visit our Privacy Policy to learn more. By continuing to use the site, you agree to this use of cookies and data.
  • In United Kingdom
  • List of Countries
  • For 7 days
  • Water Temperature
  • Satellite Maps
  • Weather Map
  • Weather Widgets
  • user-avatar
    Login

    Hourly Weather Malaga

    Today, 17 December, Monday

    Time Temperature Precipitation Wind Pressure Humidity
    00:00 +13°C° 0 mm 4 mps 768 mmHg 91%
    01:00 +13°C° 0 mm 4 mps 768 mmHg 91%
    02:00 +12°C° 0 mm 4 mps 768 mmHg 90%
    03:00 +12°C° 0 mm 4 mps 769 mmHg 90%
    04:00 +12°C° 0 mm 3 mps 769 mmHg 89%
    05:00 +11°C° 0 mm 3 mps 769 mmHg 88%
    06:00 +11°C° 0 mm 3 mps 769 mmHg 86%
    07:00 +12°C° 0 mm 3 mps 769 mmHg 82%
    08:00 +13°C° 0 mm 2 mps 769 mmHg 77%
    09:00 +14°C° 0 mm 2 mps 769 mmHg 73%
    10:00 +16°C° 0 mm 3 mps 769 mmHg 66%
    11:00 +17°C° 0 mm 3 mps 769 mmHg 59%
    12:00 +19°C° 0 mm 4 mps 769 mmHg 52%
    13:00 +19°C° 0 mm 4 mps 768 mmHg 57%
    14:00 +19°C° 0 mm 4 mps 768 mmHg 61%
    15:00 +19°C° 0 mm 4 mps 767 mmHg 66%
    16:00 +18°C° 0 mm 4 mps 767 mmHg 74%
    17:00 +17°C° 0 mm 4 mps 768 mmHg 82%
    18:00 +14°C° 0 mm 4 mps 768 mmHg 90%
    19:00 +14°C° 0 mm 4 mps 768 mmHg 91%
    20:00 +14°C° 0 mm 4 mps 768 mmHg 92%
    21:00 +13°C° 0 mm 4 mps 768 mmHg 94%
    22:00 +13°C° 0 mm 4 mps 768 mmHg 93%
    23:00 +12°C° 0 mm 3 mps 768 mmHg 93%

    Tomorrow, 18 December, Tuesday

    Time Temperature Precipitation Wind Pressure Humidity
    00:00 +12°C° 0 mm 3 mps 768 mmHg 92%
    01:00 +12°C° 0 mm 3 mps 768 mmHg 91%
    02:00 +12°C° 0 mm 3 mps 767 mmHg 90%
    03:00 +12°C° 0 mm 3 mps 767 mmHg 88%
    04:00 +11°C° 0 mm 3 mps 767 mmHg 87%
    05:00 +11°C° 0 mm 3 mps 766 mmHg 85%
    06:00 +11°C° 0 mm 3 mps 766 mmHg 84%
    07:00 +13°C° 0 mm 2 mps 766 mmHg 79%
    08:00 +14°C° 0 mm 2 mps 766 mmHg 75%
    09:00 +15°C° 0 mm 2 mps 766 mmHg 70%
    10:00 +16°C° 0 mm 2 mps 766 mmHg 66%
    11:00 +18°C° 0 mm 2 mps 766 mmHg 61%
    12:00 +20°C° 0 mm 2 mps 765 mmHg 57%
    13:00 +20°C° 0 mm 2 mps 765 mmHg 57%
    14:00 +20°C° 0 mm 2 mps 765 mmHg 58%
    15:00 +20°C° 0 mm 2 mps 764 mmHg 58%
    16:00 +20°C° 0 mm 1 mps 765 mmHg 65%
    17:00 +18°C° 0 mm 1 mps 765 mmHg 73%
    18:00 +15°C° 0 mm 1 mps 765 mmHg 80%
    19:00 +15°C° 0 mm 1 mps 765 mmHg 79%
    20:00 +15°C° 0 mm 1 mps 765 mmHg 79%
    21:00 +15°C° 0 mm 1 mps 765 mmHg 78%
    22:00 +16°C° 0 mm 2 mps 765 mmHg 77%
    23:00 +16°C° 0 mm 2 mps 765 mmHg 77%

    Day after tomorrow, 19 December, Wednesday

    Time Temperature Precipitation Wind Pressure Humidity
    00:00 +16°C° 0 mm 2 mps 765 mmHg 76%
    01:00 +16°C° 0.1 mm 2 mps 765 mmHg 76%
    02:00 +16°C° 0.1 mm 2 mps 765 mmHg 77%
    03:00 +16°C° 0.1 mm 2 mps 765 mmHg 77%
    04:00 +16°C° 0 mm 2 mps 765 mmHg 78%
    05:00 +16°C° 0 mm 2 mps 765 mmHg 79%
    06:00 +16°C° 0 mm 3 mps 765 mmHg 80%
    07:00 +16°C° 0 mm 3 mps 765 mmHg 80%
    08:00 +16°C° 0 mm 3 mps 766 mmHg 81%
    09:00 +16°C° 0 mm 3 mps 766 mmHg 81%
    10:00 +17°C° 0 mm 3 mps 766 mmHg 74%
    11:00 +18°C° 0 mm 4 mps 766 mmHg 66%
    12:00 +18°C° 0 mm 4 mps 767 mmHg 58%
    13:00 +18°C° 0 mm 4 mps 766 mmHg 54%
    14:00 +18°C° 0 mm 4 mps 766 mmHg 50%
    15:00 +18°C° 0 mm 4 mps 765 mmHg 46%
    16:00 +17°C° 0 mm 4 mps 766 mmHg 51%
    17:00 +14°C° 0 mm 4 mps 766 mmHg 55%
    18:00 +13°C° 0 mm 4 mps 766 mmHg 60%
    19:00 +12°C° 0 mm 4 mps 767 mmHg 62%
    20:00 +12°C° 0 mm 4 mps 767 mmHg 64%
    21:00 +11°C° 0 mm 4 mps 768 mmHg 66%
    22:00 +11°C° 0 mm 3 mps 768 mmHg 68%
    23:00 +11°C° 0 mm 3 mps 768 mmHg 70%

    20 December, Thursday

    Time Temperature Precipitation Wind Pressure Humidity
    00:00 +11°C° 0 mm 3 mps 767 mmHg 73%
    01:00 +11°C° 0 mm 3 mps 767 mmHg 74%
    02:00 +10°C° 0 mm 3 mps 767 mmHg 76%
    03:00 +10°C° 0 mm 3 mps 767 mmHg 78%
    04:00 +10°C° 0 mm 2 mps 767 mmHg 77%
    05:00 +10°C° 0 mm 2 mps 767 mmHg 77%
    06:00 +10°C° 0 mm 2 mps 767 mmHg 77%
    07:00 +10°C° 0 mm 2 mps 768 mmHg 75%
    08:00 +12°C° 0 mm 2 mps 768 mmHg 72%
    09:00 +13°C° 0 mm 2 mps 769 mmHg 69%
    10:00 +14°C° 0 mm 2 mps 769 mmHg 63%
    11:00 +16°C° 0 mm 1 mps 769 mmHg 57%
    12:00 +18°C° 0 mm 1 mps 768 mmHg 51%
    13:00 +18°C° 0 mm 2 mps 768 mmHg 51%
    14:00 +18°C° 0 mm 2 mps 768 mmHg 50%
    15:00 +18°C° 0 mm 2 mps 767 mmHg 50%
    16:00 +17°C° 0 mm 2 mps 768 mmHg 56%
    17:00 +15°C° 0 mm 2 mps 768 mmHg 63%
    18:00 +14°C° 0 mm 2 mps 769 mmHg 69%
    19:00 +13°C° 0 mm 2 mps 769 mmHg 70%
    20:00 +13°C° 0 mm 2 mps 770 mmHg 71%
    21:00 +13°C° 0 mm 2 mps 770 mmHg 72%
    22:00 +13°C° 0 mm 2 mps 770 mmHg 72%
    23:00 +12°C° 0 mm 2 mps 770 mmHg 72%

    21 December, Friday

    Time Temperature Precipitation Wind Pressure Humidity
    00:00 +12°C° 0 mm 2 mps 770 mmHg 72%
    01:00 +12°C° 0 mm 1 mps 770 mmHg 72%
    02:00 +12°C° 0 mm 1 mps 770 mmHg 71%
    03:00 +12°C° 0 mm 1 mps 770 mmHg 71%
    04:00 +12°C° 0 mm 1 mps 770 mmHg 70%
    05:00 +12°C° 0 mm 1 mps 770 mmHg 70%
    06:00 +12°C° 0 mm 1 mps 770 mmHg 69%
    07:00 +13°C° 0 mm 1 mps 770 mmHg 66%
    08:00 +14°C° 0 mm 1 mps 771 mmHg 64%
    09:00 +15°C° 0 mm 1 mps 771 mmHg 61%
    10:00 +16°C° 0 mm 1 mps 771 mmHg 56%
    11:00 +19°C° 0 mm 1 mps 771 mmHg 51%
    12:00 +21°C° 0 mm 1 mps 771 mmHg 46%
    13:00 +21°C° 0 mm 1 mps 770 mmHg 46%
    14:00 +21°C° 0 mm 1 mps 770 mmHg 46%
    15:00 +21°C° 0 mm 1 mps 770 mmHg 46%
    16:00 +20°C° 0 mm 1 mps 770 mmHg 52%
    17:00 +18°C° 0 mm 1 mps 770 mmHg 58%
    18:00 +16°C° 0 mm 1 mps 770 mmHg 64%
    19:00 +15°C° 0 mm 1 mps 770 mmHg 64%
    20:00 +15°C° 0 mm 1 mps 770 mmHg 64%
    21:00 +15°C° 0 mm 1 mps 771 mmHg 64%
    22:00 +15°C° 0 mm 1 mps 770 mmHg 63%
    23:00 +15°C° 0 mm 1 mps 770 mmHg 63%

    22 December, Saturday

    Time Temperature Precipitation Wind Pressure Humidity
    00:00 +15°C° 0 mm 1 mps 770 mmHg 62%
    01:00 +15°C° 0 mm 1 mps 770 mmHg 62%
    02:00 +14°C° 0 mm 1 mps 770 mmHg 62%
    03:00 +14°C° 0 mm 1 mps 769 mmHg 62%
    04:00 +14°C° 0 mm 1 mps 769 mmHg 62%
    05:00 +14°C° 0 mm 1 mps 769 mmHg 62%
    06:00 +14°C° 0 mm 1 mps 769 mmHg 63%
    07:00 +15°C° 0 mm 1 mps 769 mmHg 61%
    08:00 +16°C° 0 mm 2 mps 770 mmHg 60%
    09:00 +17°C° 0 mm 2 mps 770 mmHg 58%
    10:00 +18°C° 0 mm 2 mps 770 mmHg 52%
    11:00 +20°C° 0 mm 2 mps 770 mmHg 46%
    12:00 +23°C° 0 mm 2 mps 769 mmHg 39%
    13:00 +23°C° 0 mm 2 mps 769 mmHg 39%
    14:00 +23°C° 0 mm 2 mps 769 mmHg 38%
    15:00 +23°C° 0 mm 2 mps 768 mmHg 37%
    16:00 +20°C° 0 mm 2 mps 768 mmHg 42%
    17:00 +19°C° 0 mm 2 mps 769 mmHg 46%
    18:00 +18°C° 0 mm 1 mps 769 mmHg 51%
    19:00 +16°C° 0 mm 2 mps 769 mmHg 50%
    20:00 +16°C° 0 mm 2 mps 769 mmHg 49%
    21:00 +16°C° 0 mm 2 mps 770 mmHg 47%
    22:00 +16°C° 0 mm 2 mps 770 mmHg 47%
    23:00 +15°C° 0 mm 2 mps 770 mmHg 47%
    Show more